GW6957 Weather Reports


time (UTC)temp
C
wind
direction
speed
KPH
gust
KPH
rain 1hr
cm
rain 24hr
cm
rain mn
cm
humidity
%
barometer
mb
20260831210733 29 311 1.6 3.2 0.00 0.00 0.00 70 1019.3
20260831210232 28 359 1.6 1.6 0.00 0.00 0.00 80 1019.3
20260831205733 28 342 0.0 0.0 0.00 0.00 0.00 82 1019.3
20260831205233 28 340 1.6 1.6 0.00 0.00 0.00 84 1019.3
20260831204733 28 7 0.0 1.6 0.00 0.00 0.00 82 1019.3
20260831204232 29 14 1.6 1.6 0.00 0.00 0.00 76 1019.3
20260831203733 30 320 1.6 1.6 0.00 0.00 0.00 73 1019.3
20260831203232 31 31 0.0 0.0 0.00 0.00 0.00 64 1019.3
20260831202734 31 128 4.8 4.8 0.00 0.00 0.00 62 1019.3
20260831202232 32 150 4.8 4.8 0.00 0.00 0.00 59 1019.3
20260831201734 32 104 3.2 3.2 0.00 0.00 0.00 58 1019.3
20260831201232 33 64 3.2 6.4 0.00 0.00 0.00 54 1019.3
20260831200732 33 95 1.6 1.6 0.00 0.00 0.00 55 1019.3
20260831200232 33 183 4.8 4.8 0.00 0.00 0.00 56 1019.3
20260831195734 33 5 4.8 6.4 0.00 0.00 0.00 56 1019.6
20260831195232 33 137 3.2 4.8 0.00 0.00 0.00 56 1019.6
20260831194733 33 181 6.4 9.7 0.00 0.00 0.00 58 1019.6
20260831194233 33 99 4.8 4.8 0.00 0.00 0.00 57 1019.6
20260831193733 32 170 4.8 4.8 0.00 0.00 0.00 60 1019.6
20260831193232 32 68 4.8 9.7 0.00 0.00 0.00 60 1019.6
20260831192733 32 106 8.0 11.3 0.00 0.00 0.00 60 1019.6
20260831192232 32 81 4.8 6.4 0.00 0.00 0.00 61 1019.6
20260831191733 33 158 4.8 6.4 0.00 0.00 0.00 61 1019.6
20260831191232 33 118 3.2 4.8 0.00 0.00 0.00 60 1020.0
20260831190733 33 93 8.0 8.0 0.00 0.00 0.00 58 1020.0
20260831190233 33 125 6.4 9.7 0.00 0.00 0.00 60 1020.0
20260831185732 33 97 4.8 4.8 0.00 0.00 0.00 58 1020.0
20260831185232 32 62 4.8 8.0 0.00 0.00 0.00 60 1020.0
20260831184734 32 149 1.6 3.2 0.00 0.00 0.00 61 1020.0
20260831184233 33 166 4.8 6.4 0.00 0.00 0.00 56 1020.0
20260831183733 33 161 8.0 11.3 0.00 0.00 0.00 57 1020.0
20260831183234 33 119 6.4 8.0 0.00 0.00 0.00 57 1020.0
20260831182733 33 112 4.8 6.4 0.00 0.00 0.00 56 1020.0
20260831182233 33 82 3.2 4.8 0.00 0.00 0.00 57 1020.0
20260831181732 33 108 3.2 6.4 0.00 0.00 0.00 60 1020.0
20260831181232 33 109 3.2 4.8 0.00 0.00 0.00 60 1020.0
20260831180735 33 96 4.8 6.4 0.00 0.00 0.00 60 1020.0
20260831180233 33 160 3.2 4.8 0.00 0.00 0.00 62 1020.0
20260831175732 33 78 4.8 4.8 0.00 0.00 0.00 59 1020.0
20260831175233 33 94 1.6 1.6 0.00 0.00 0.00 60 1020.0
20260831174733 33 79 0.0 1.6 0.00 0.00 0.00 58 1020.0
20260831174235 33 227 3.2 3.2 0.00 0.00 0.00 59 1020.0
20260831173733 32 85 1.6 1.6 0.00 0.00 0.00 62 1020.0
20260831173233 31 66 3.2 4.8 0.00 0.00 0.00 62 1020.0
20260831172733 32 142 4.8 4.8 0.00 0.00 0.00 62 1020.0
20260831172233 32 103 11.3 16.1 0.00 0.00 0.00 60 1020.3
20260831171733 32 156 4.8 6.4 0.00 0.00 0.00 60 1020.3
20260831171232 33 154 1.6 1.6 0.00 0.00 0.00 61 1020.3
20260831170732 32 81 1.6 1.6 0.00 0.00 0.00 66 1020.3
20260831170233 32 71 3.2 3.2 0.00 0.00 0.00 63 1020.3
20260831165733 32 90 1.6 1.6 0.00 0.00 0.00 66 1020.3
20260831165233 32 233 4.8 4.8 0.00 0.00 0.00 65 1020.3
20260831164734 31 165 8.0 9.7 0.00 0.00 0.00 67 1020.3
20260831164232 31 91 4.8 6.4 0.00 0.00 0.00 65 1020.3
20260831163732 31 114 1.6 4.8 0.00 0.00 0.00 66 1020.3
20260831163232 31 78 3.2 4.8 0.00 0.00 0.00 67 1020.7
20260831162734 30 58 4.8 4.8 0.00 0.00 0.00 68 1020.7
20260831162232 30 119 1.6 3.2 0.00 0.00 0.00 68 1020.7
20260831161734 30 95 1.6 1.6 0.00 0.00 0.00 69 1020.7
20260831161233 30 106 4.8 4.8 0.00 0.00 0.00 68 1020.7
20260831160733 30 70 4.8 4.8 0.00 0.00 0.00 67 1020.7
20260831160233 31 118 1.6 1.6 0.00 0.00 0.00 67 1020.7
20260831155733 31 101 3.2 9.7 0.00 0.00 0.00 66 1020.7
20260831155233 31 173 4.8 6.4 0.00 0.00 0.00 67 1020.7
20260831154733 30 155 3.2 4.8 0.00 0.00 0.00 66 1020.7
20260831154233 30 94 3.2 3.2 0.00 0.00 0.00 69 1020.7
20260831153734 29 91 3.2 4.8 0.00 0.00 0.00 72 1020.7
20260831153233 28 91 3.2 3.2 0.00 0.00 0.00 73 1020.7
20260831152734 28 169 8.0 11.3 0.00 0.00 0.00 74 1020.7
20260831152233 28 78 4.8 4.8 0.00 0.00 0.00 76 1020.7
20260831151255 27 58 1.6 1.6 0.00 0.00 0.00 78 1020.7
20260831150733 27 64 3.2 3.2 0.00 0.00 0.00 76 1020.7
20260831150233 27 77 3.2 3.2 0.00 0.00 0.00 77 1020.7
20260831145733 27 72 3.2 4.8 0.00 0.00 0.00 79 1020.7
20260831145233 26 121 4.8 8.0 0.00 0.00 0.00 80 1020.7
20260831144732 26 158 3.2 3.2 0.00 0.00 0.00 81 1020.7
20260831144232 26 137 3.2 4.8 0.00 0.00 0.00 82 1020.7
20260831143733 25 128 3.2 3.2 0.00 0.00 0.00 84 1020.7
20260831143233 25 50 0.0 0.0 0.00 0.00 0.00 85 1020.7
20260831142733 25 164 1.6 3.2 0.00 0.00 0.00 86 1020.7
20260831142232 25 86 1.6 1.6 0.00 0.00 0.00 86 1020.7
20260831141733 24 105 1.6 1.6 0.00 0.00 0.00 87 1020.7
20260831141234 24 11 1.6 1.6 0.00 0.00 0.00 89 1020.3
20260831140734 24 29 0.0 0.0 0.00 0.00 0.00 89 1020.3
20260831140234 24 53 0.0 0.0 0.00 0.00 0.00 89 1020.3
20260831135733 23 133 3.2 3.2 0.00 0.00 0.00 91 1020.3
20260831135233 23 171 1.6 1.6 0.00 0.00 0.00 96 1020.3
20260831134732 23 360 0.0 0.0 0.00 0.00 0.00 99 1020.3
20260831134233 23 359 0.0 0.0 0.00 0.00 0.00 99 1020.3
20260831133732 23 51 1.6 3.2 0.00 0.00 0.00 95 1020.7
20260831133232 23 25 1.6 1.6 0.00 0.00 0.00 98 1020.7
20260831132732 23 49 0.0 1.6 0.00 0.00 0.00 99 1020.7
20260831132232 22 326 0.0 0.0 0.00 0.00 0.00 99 1020.3
20260831131732 22 7 0.0 0.0 0.00 0.00 0.00 99 1020.3
20260831131232 22 359 0.0 0.0 0.00 0.00 0.00 99 1020.3
20260831130734 22 360 0.0 0.0 0.00 0.00 0.00 99 1020.3
20260831130233 21 359 0.0 0.0 0.00 0.00 0.00 99 1020.3
20260831125732 21 359 0.0 0.0 0.00 0.00 0.00 99 1020.3
20260831125306 21 359 0.0 0.0 0.00 0.00 0.00 99 1020.3
20260831124733 20 360 1.6 1.6 0.00 0.00 0.00 99 1020.0
20260831124232 20 359 1.6 1.6 0.00 0.00 0.00 99 1020.0
20260831123801 20 359 0.0 0.0 0.00 0.00 0.00 99 1020.0
20260831123233 20 359 0.0 0.0 0.00 0.00 0.00 99 1020.0
20260831122732 20 359 0.0 0.0 0.00 0.00 0.00 99 1020.0
20260831122232 20 359 0.0 0.0 0.00 0.00 0.00 99 1020.0
20260831121732 20 359 0.0 0.0 0.00 0.00 0.00 99 1020.0
20260831121233 20 359 0.0 0.0 0.00 0.00 0.00 99 1020.0
20260831120732 20 359 0.0 0.0 0.00 0.00 0.00 99 1020.0
20260831120235 19 360 0.0 0.0 0.00 0.00 0.00 99 1020.0
20260831115733 19 359 0.0 0.0 0.00 0.00 0.00 99 1020.0
20260831115232 19 359 0.0 0.0 0.00 0.00 0.00 99 1020.0
20260831114732 19 359 0.0 0.0 0.00 0.00 0.00 99 1020.0
20260831114233 19 359 0.0 0.0 0.00 0.00 0.00 99 1020.0
20260831113733 19 359 0.0 0.0 0.00 0.00 0.00 99 1020.0
20260831113233 19 359 0.0 0.0 0.00 0.00 0.00 99 1020.0
20260831112732 19 359 0.0 0.0 0.00 0.00 0.00 99 1020.0
20260831112233 19 359 0.0 0.0 0.00 0.00 0.00 99 1020.0
20260831111732 19 360 1.6 1.6 0.00 0.00 0.00 99 1020.0
20260831111232 18 359 0.0 0.0 0.00 0.00 0.00 99 1020.0
20260831110733 18 360 0.0 0.0 0.00 0.00 0.00 99 1020.0
20260831110233 18 359 0.0 0.0 0.00 0.00 0.00 99 1020.0
20260831105732 18 359 0.0 0.0 0.00 0.00 0.00 99 1020.0
20260831105232 18 359 0.0 0.0 0.00 0.00 0.00 99 1020.0
20260831104733 18 359 0.0 0.0 0.00 0.00 0.00 99 1020.0
20260831104234 18 359 0.0 0.0 0.00 0.00 0.00 99 1020.0
20260831103733 18 359 0.0 0.0 0.00 0.00 0.00 99 1020.0
20260831103233 18 360 0.0 0.0 0.00 0.00 0.00 99 1020.0
20260831102733 18 360 0.0 0.0 0.00 0.00 0.00 99 1020.0
20260831102234 18 359 0.0 0.0 0.00 0.00 0.00 99 1019.6
20260831101732 18 359 0.0 0.0 0.00 0.00 0.00 99 1019.6
20260831101232 18 359 0.0 0.0 0.00 0.00 0.00 99 1019.6
20260831100733 18 359 0.0 0.0 0.00 0.00 0.00 99 1019.6
20260831100233 18 359 0.0 0.0 0.00 0.00 0.00 99 1019.6
20260831095733 18 359 0.0 0.0 0.00 0.00 0.00 99 1019.6
20260831095232 18 359 0.0 0.0 0.00 0.00 0.00 99 1019.6
20260831094732 18 359 0.0 0.0 0.00 0.00 0.00 99 1019.3
20260831094232 18 359 0.0 0.0 0.00 0.00 0.00 99 1019.3
20260831093733 18 359 0.0 0.0 0.00 0.00 0.00 99 1019.3
20260831093232 19 359 0.0 0.0 0.00 0.00 0.00 99 1019.3
20260831092732 19 359 0.0 0.0 0.00 0.00 0.00 99 1019.3
20260831092232 19 359 0.0 0.0 0.00 0.00 0.00 99 1019.3
20260831091734 19 359 0.0 0.0 0.00 0.00 0.00 99 1019.3
20260831091239 19 360 0.0 0.0 0.00 0.00 0.00 99 1019.3
20260831090732 19 359 0.0 0.0 0.00 0.00 0.00 99 1019.3
20260831090233 19 359 0.0 0.0 0.00 0.00 0.00 99 1019.3
20260831085733 19 359 0.0 0.0 0.00 0.00 0.00 99 1019.3
20260831085232 19 359 0.0 0.0 0.00 0.00 0.00 99 1019.3
20260831084732 19 359 0.0 0.0 0.00 0.00 0.00 99 1019.3
20260831084233 19 359 0.0 0.0 0.00 0.00 0.00 99 1019.3
20260831083732 19 359 0.0 0.0 0.00 0.00 0.00 99 1019.3
20260831083232 19 359 0.0 0.0 0.00 0.00 0.00 99 1019.3
20260831082732 19 360 0.0 0.0 0.00 0.00 0.00 99 1019.3
20260831082234 19 360 0.0 0.0 0.00 0.00 0.00 99 1019.3
20260831081732 19 360 0.0 0.0 0.00 0.00 0.00 99 1019.3
20260831081233 19 359 0.0 0.0 0.00 0.00 0.00 99 1019.3
20260831080732 19 359 0.0 0.0 0.00 0.00 0.00 99 1019.3
20260831080235 19 359 0.0 0.0 0.00 0.00 0.00 99 1019.3
20260831075734 19 360 0.0 0.0 0.00 0.00 0.00 99 1019.3
20260831075233 19 359 0.0 0.0 0.00 0.00 0.00 99 1019.3
20260831074732 19 359 0.0 0.0 0.00 0.00 0.00 99 1019.3
20260831074233 19 359 0.0 0.0 0.00 0.00 0.00 99 1019.3
20260831073733 19 359 0.0 0.0 0.00 0.00 0.00 99 1019.3
20260831073233 19 359 0.0 0.0 0.00 0.00 0.00 99 1019.3
20260831072734 19 359 0.0 0.0 0.00 0.00 0.00 99 1019.3
20260831072232 19 360 0.0 0.0 0.00 0.00 0.00 99 1019.3
20260831071732 19 360 0.0 1.6 0.00 0.00 0.00 99 1019.3
20260831071233 19 359 0.0 0.0 0.00 0.00 0.00 99 1019.3
20260831070733 20 359 0.0 0.0 0.00 0.00 0.00 99 1019.3
20260831070232 20 4 1.6 1.6 0.00 0.00 0.00 99 1019.3
20260831065732 20 4 0.0 0.0 0.00 0.00 0.00 99 1019.3
20260831065232 20 2 0.0 0.0 0.00 0.00 0.00 99 1019.3
20260831064732 20 2 0.0 0.0 0.00 0.00 0.00 99 1019.6
20260831064233 20 360 0.0 0.0 0.00 0.00 0.00 99 1019.6
20260831063732 20 360 0.0 0.0 0.00 0.00 0.00 99 1019.3
20260831063232 20 2 0.0 0.0 0.00 0.00 0.00 99 1019.3
20260831062732 20 2 0.0 0.0 0.00 0.00 0.00 99 1019.3
20260831062232 20 360 0.0 0.0 0.00 0.00 0.00 99 1019.3
20260831061732 20 360 0.0 0.0 0.00 0.00 0.00 99 1019.3
20260831061233 20 360 0.0 0.0 0.00 0.00 0.00 99 1019.6
20260831060733 20 360 0.0 0.0 0.00 0.00 0.00 99 1019.6
20260831060232 20 360 0.0 0.0 0.00 0.00 0.00 99 1019.6
20260831055732 20 2 0.0 0.0 0.00 0.00 0.00 99 1019.3
20260831055232 20 2 0.0 0.0 0.00 0.00 0.00 99 1019.3
20260831054732 20 360 0.0 0.0 0.00 0.00 0.00 99 1019.3
20260831054232 20 360 0.0 0.0 0.00 0.00 0.00 99 1019.3
20260831053732 20 360 0.0 0.0 0.00 0.00 0.00 99 1019.6
20260831053232 20 2 0.0 0.0 0.00 0.00 0.00 99 1019.6
20260831052733 20 360 0.0 0.0 0.00 0.00 0.00 99 1019.6
20260831052234 20 360 0.0 0.0 0.00 0.00 0.00 99 1019.6
20260831051734 20 2 0.0 0.0 0.00 0.00 0.00 99 1019.6
20260831051233 20 360 0.0 0.0 0.00 0.00 0.00 99 1019.6
20260831050732 20 360 0.0 0.0 0.00 0.00 0.00 99 1019.6
20260831050232 20 2 0.0 0.0 0.00 0.00 0.00 99 1019.6
20260831045732 20 2 0.0 0.0 0.00 0.00 0.00 99 1019.6
20260831045233 20 2 0.0 0.0 0.00 0.00 0.00 99 1019.6
20260831044733 20 360 0.0 0.0 0.00 0.00 0.00 99 1019.6
20260831044233 20 360 0.0 0.0 0.00 0.00 0.00 99 1019.6
20260831043732 20 360 0.0 0.0 0.00 0.00 0.00 99 1020.0
20260831043234 20 360 0.0 0.0 0.00 0.00 0.00 99 1020.0
20260831042732 20 360 0.0 0.0 0.00 0.00 0.00 99 1020.0
20260831042232 20 360 0.0 0.0 0.00 0.00 0.00 99 1019.6
20260831041732 20 2 0.0 1.6 0.00 0.00 0.00 99 1019.6
20260831041232 20 360 0.0 0.0 0.00 0.00 0.00 99 1019.6
20260831040732 20 2 0.0 0.0 0.00 0.00 0.00 99 1019.6
20260831040233 20 360 0.0 0.0 0.00 0.00 0.00 99 1020.0
20260831035733 20 2 0.0 0.0 0.00 0.00 0.00 99 1020.0
20260831035233 20 2 0.0 0.0 0.00 0.00 0.00 99 1020.0
20260831034732 20 2 0.0 0.0 0.00 0.00 0.00 99 1020.0
20260831034232 20 360 0.0 0.0 0.00 0.00 0.00 99 1020.0
20260831033732 20 2 0.0 0.0 0.00 0.00 0.00 99 1020.0
20260831033232 20 360 0.0 0.0 0.00 0.00 0.00 99 1020.0
20260831032732 20 2 0.0 0.0 0.00 0.00 0.00 99 1020.0
20260831032232 20 2 0.0 0.0 0.00 0.00 0.00 99 1019.6
20260831031733 20 2 0.0 0.0 0.00 0.00 0.00 99 1019.6
20260831031232 20 360 0.0 0.0 0.00 0.00 0.00 99 1019.6
20260831030733 20 360 0.0 0.0 0.00 0.00 0.00 99 1019.6
20260831030232 20 2 0.0 0.0 0.00 0.00 0.00 99 1019.6
20260831025732 20 2 0.0 0.0 0.00 0.00 0.00 99 1019.6
20260831025233 21 2 0.0 0.0 0.00 0.00 0.00 99 1019.6
20260831024733 21 2 0.0 1.6 0.00 0.00 0.00 99 1019.6
20260831024232 21 2 0.0 0.0 0.00 0.00 0.00 99 1019.6
20260831023733 21 2 0.0 0.0 0.00 0.00 0.00 99 1019.6
20260831023232 21 360 0.0 0.0 0.00 0.00 0.00 99 1019.6
20260831022737 21 360 0.0 0.0 0.00 0.00 0.00 99 1019.6
20260831022232 21 360 0.0 0.0 0.00 0.00 0.00 99 1019.6
20260831021732 21 360 0.0 0.0 0.00 0.00 0.00 99 1019.6
20260831021232 21 360 0.0 0.0 0.00 0.00 0.00 99 1019.6
20260831020732 21 360 0.0 0.0 0.00 0.00 0.00 99 1019.6
20260831020232 21 360 0.0 0.0 0.00 0.00 0.00 99 1019.6
20260831015733 21 2 1.6 1.6 0.00 0.00 0.00 99 1019.3
20260831015233 21 360 0.0 0.0 0.00 0.00 0.00 99 1019.3
20260831014732 21 360 0.0 0.0 0.00 0.00 0.00 99 1019.6
20260831014232 21 360 0.0 0.0 0.00 0.00 0.00 99 1019.6
20260831013736 21 360 0.0 0.0 0.00 0.00 0.00 99 1019.6
20260831013233 21 360 0.0 0.0 0.00 0.00 0.00 99 1019.6
20260831012732 21 360 0.0 0.0 0.00 0.00 0.00 99 1019.6
20260831012232 21 360 0.0 0.0 0.00 0.00 0.00 99 1019.3
20260831011735 21 360 0.0 0.0 0.00 0.00 0.00 99 1019.3
20260831011232 21 360 0.0 0.0 0.00 0.00 0.00 99 1019.3
20260831010733 22 360 0.0 0.0 0.00 0.00 0.00 99 1019.3
20260831010232 22 360 0.0 0.0 0.00 0.00 0.00 99 1019.3
20260831005732 22 360 0.0 0.0 0.00 0.00 0.00 99 1019.3
20260831005233 22 360 0.0 0.0 0.00 0.00 0.00 99 1019.3
20260831004733 22 2 0.0 0.0 0.00 0.00 0.00 99 1019.0
20260831004232 22 360 0.0 0.0 0.00 0.00 0.00 99 1019.0
20260831003733 22 360 0.0 0.0 0.00 0.00 0.00 99 1018.3
20260831003233 23 360 0.0 0.0 0.00 0.00 0.00 99 1018.3
20260831002734 23 360 0.0 0.0 0.00 0.00 0.00 99 1018.3
20260831002232 23 2 0.0 0.0 0.00 0.00 0.00 99 1018.3
20260831001732 23 360 0.0 0.0 0.00 0.00 0.00 99 1018.3
20260831001232 23 6 1.6 1.6 0.00 0.00 0.00 99 1018.3
20260831000733 23 12 0.0 0.0 0.00 0.00 0.00 99 1018.3
20260831000233 23 22 0.0 0.0 0.00 0.00 0.00 99 1018.3
20260830235247 24 8 1.6 1.6 0.00 0.00 0.00 99 1018.3
20260830234732 24 8 1.6 1.6 0.00 0.00 0.00 99 1018.3
20260830234232 24 360 1.6 1.6 0.00 0.00 0.00 99 1018.3
20260830233732 24 8 0.0 0.0 0.00 0.00 0.00 98 1018.3
20260830233232 25 358 0.0 0.0 0.00 0.00 0.00 97 1018.3
20260830232732 25 2 1.6 1.6 0.00 0.00 0.00 96 1018.3
20260830232232 25 7 1.6 1.6 0.00 0.00 0.00 95 1017.9
20260830231733 25 4 1.6 1.6 0.00 0.00 0.00 93 1017.9
20260830231232 25 359 1.6 1.6 0.00 0.00 0.00 92 1018.3
20260830230732 25 358 1.6 1.6 0.00 0.00 0.00 91 1018.3
20260830230233 25 5 1.6 1.6 0.00 0.00 0.00 91 1018.3
20260830225732 25 8 3.2 3.2 0.00 0.00 0.00 90 1018.3
20260830225232 25 10 1.6 1.6 0.00 0.00 0.00 89 1018.3
20260830224732 25 357 1.6 1.6 0.00 0.00 0.00 88 1017.9
20260830224232 26 8 1.6 1.6 0.00 0.00 0.00 87 1017.9
20260830223732 26 360 3.2 3.2 0.00 0.00 0.00 85 1017.9
20260830223232 26 360 3.2 3.2 0.00 0.00 0.00 84 1017.9
20260830222732 26 360 3.2 3.2 0.00 0.00 0.00 85 1017.9
20260830222232 26 360 1.6 1.6 0.00 0.00 0.00 83 1018.3
20260830221732 26 356 3.2 3.2 0.00 0.00 0.00 81 1018.3
20260830221232 26 8 1.6 1.6 0.00 0.00 0.00 81 1018.3
20260830220733 26 358 3.2 3.2 0.00 0.00 0.00 80 1018.3
20260830220233 27 359 1.6 3.2 0.00 0.00 0.00 80 1018.3
20260830215732 27 354 1.6 1.6 0.00 0.00 0.00 78 1018.3
20260830215232 27 5 3.2 3.2 0.00 0.00 0.00 75 1018.3
20260830214734 28 3 1.6 1.6 0.00 0.00 0.00 71 1018.3
20260830214232 29 344 4.8 4.8 0.00 0.00 0.00 67 1018.3
20260830213737 30 8 1.6 1.6 0.00 0.00 0.00 65 1017.9
20260830213232 30 351 0.0 1.6 0.00 0.00 0.00 64 1017.9
20260830212733 31 8 1.6 1.6 0.00 0.00 0.00 61 1017.9
20260830212232 31 343 1.6 1.6 0.00 0.00 0.00 60 1017.9
20260830211733 32 357 1.6 1.6 0.00 0.00 0.00 59 1017.9
20260830211232 32 12 1.6 1.6 0.00 0.00 0.00 54 1017.9